2023/01/10 00:00:00,21.2, 2.8
2023/01/10 00:10:00,21.2, 2.6
2023/01/10 00:20:00,21.2, 2.6
2023/01/10 00:30:00,21.2, 2.8
2023/01/10 00:40:00,21.1, 2.8
2023/01/10 00:50:00,21.1, 2.8
2023/01/10 01:00:00,21.1, 2.7
2023/01/10 01:10:00,21.1, 2.5
2023/01/10 01:20:00,21.0, 2.5
2023/01/10 01:30:00,21.0, 2.7
2023/01/10 01:40:00,21.0, 2.4
2023/01/10 01:50:00,21.0, 2.3
2023/01/10 02:00:00,21.0, 2.0
2023/01/10 02:10:00,21.2, 2.1
2023/01/10 02:20:00,21.2, 1.8
2023/01/10 02:30:00,21.3, 1.7
2023/01/10 02:40:00,21.4, 1.7
2023/01/10 02:50:00,21.5, 1.7
2023/01/10 03:00:00,21.5, 2.0
2023/01/10 03:10:00,21.5, 2.0
2023/01/10 03:20:00,21.5, 1.9
2023/01/10 03:30:00,21.5, 1.8
2023/01/10 03:40:00,21.5, 1.8
2023/01/10 03:50:00,21.5, 1.7
2023/01/10 04:00:00,21.5, 1.7
2023/01/10 04:10:00,21.5, 1.7
2023/01/10 04:20:00,21.5, 1.7
2023/01/10 04:30:00,21.5, 1.5
2023/01/10 04:40:00,21.5, 1.6
2023/01/10 04:50:00,21.5, 1.2
2023/01/10 05:00:00,21.4, 1.4
2023/01/10 05:10:00,21.4, 1.4
2023/01/10 05:20:00,21.4, 1.5
2023/01/10 05:30:00,21.4, 1.3
2023/01/10 05:40:00,21.4, 1.4
2023/01/10 05:50:00,21.4, 1.2
2023/01/10 06:00:00,21.4, 1.2
2023/01/10 06:10:00,21.4, 1.4
2023/01/10 06:20:00,21.4, 1.2
2023/01/10 06:30:00,21.4, 1.1
2023/01/10 06:40:00,21.4, 1.4
2023/01/10 06:50:00,21.5, 1.2
2023/01/10 07:00:00,21.7, 1.1
2023/01/10 07:10:00,21.7, 1.2
2023/01/10 07:20:00,21.8, 1.1
2023/01/10 07:30:00,21.8, 1.2
2023/01/10 07:40:00,21.7, 1.3
2023/01/10 07:50:00,21.7, 1.3
2023/01/10 08:00:00,21.7, 1.2
2023/01/10 08:10:00,22.0, 1.3
2023/01/10 08:20:00,22.1, 1.4
2023/01/10 08:30:00,22.0, 1.5
2023/01/10 08:40:00,22.0, 1.7
2023/01/10 08:50:00,22.0, 1.9
2023/01/10 09:00:00,22.0, 2.1
2023/01/10 09:10:00,21.9, 2.2
2023/01/10 09:20:00,21.9, 2.3
2023/01/10 09:30:00,21.9, 2.2
2023/01/10 09:40:00,21.9, 2.3
2023/01/10 09:50:00,21.7, 2.5
2023/01/10 10:00:00,21.7, 2.6
2023/01/10 10:10:00,21.6, 3.3
2023/01/10 10:20:00,21.6, 3.4
2023/01/10 10:30:00,21.6, 3.1
2023/01/10 10:40:00,21.6, 2.8
2023/01/10 10:50:00,21.5, 2.9
2023/01/10 11:00:00,21.3, 3.6
2023/01/10 11:10:00,21.3, 3.6
2023/01/10 11:20:00,21.3, 3.2
2023/01/10 11:30:00,21.3, 3.2
2023/01/10 11:40:00,21.2, 3.3
2023/01/10 11:50:00,21.1, 3.4
2023/01/10 12:00:00,21.0, 3.6
2023/01/10 12:10:00,20.9, 3.6
2023/01/10 12:20:00,21.0, 3.9
2023/01/10 12:30:00,20.9, 3.4
2023/01/10 12:40:00,20.9, 4.0
2023/01/10 12:50:00,20.8, 5.0
2023/01/10 13:00:00,20.8, 7.9
2023/01/10 13:10:00,20.7, 6.0
2023/01/10 13:20:00,20.9, 4.6
2023/01/10 13:30:00,21.0, 4.6
2023/01/10 13:40:00,20.8, 4.1
2023/01/10 13:50:00,21.0, 7.4
2023/01/10 14:00:00,20.8, 5.3
2023/01/10 14:10:00,20.7, 5.2
2023/01/10 14:20:00,20.6, 6.1
2023/01/10 14:30:00,20.6, 5.0
2023/01/10 14:40:00,20.6, 4.8
2023/01/10 14:50:00,20.5, 5.8
2023/01/10 15:00:00,20.6, 4.5
2023/01/10 15:10:00,20.6, 4.4
2023/01/10 15:20:00,20.6, 4.5
2023/01/10 15:30:00,20.6, 4.3
2023/01/10 15:40:00,20.6, 3.8
2023/01/10 15:50:00,20.6, 3.8
2023/01/10 16:00:00,20.6, 4.0
2023/01/10 16:10:00,20.7, 3.3
2023/01/10 16:20:00,20.8, 3.2
2023/01/10 16:30:00,20.8, 3.0
2023/01/10 16:40:00,20.8, 2.8
2023/01/10 16:50:00,20.8, 2.4
2023/01/10 17:00:00,20.7, 2.2
2023/01/10 17:10:00,20.8, 1.6
2023/01/10 17:20:00,20.7, 1.4
2023/01/10 17:30:00,20.7, 1.2
2023/01/10 17:40:00,20.8, 0.8
2023/01/10 17:50:00,20.8, 0.9
2023/01/10 18:00:00,20.8, 0.6
2023/01/10 18:10:00,20.8, 0.5
2023/01/10 18:20:00,20.8, 0.6
2023/01/10 18:30:00,20.9, 0.3
2023/01/10 18:40:00,20.9, 0.3
2023/01/10 18:50:00,20.9,-0.1
2023/01/10 19:00:00,20.9,-0.2
2023/01/10 19:10:00,20.8,-0.3
2023/01/10 19:20:00,20.8,-0.6
2023/01/10 19:30:00,20.8,-0.5
2023/01/10 19:40:00,20.8,-0.6
2023/01/10 19:50:00,20.8,-0.6
2023/01/10 20:00:00,20.8,-0.9
2023/01/10 20:10:00,20.8,-0.5
2023/01/10 20:20:00,20.8,-0.4
2023/01/10 20:30:00,20.8,-0.6
2023/01/10 20:40:00,20.8,-0.5
2023/01/10 20:50:00,20.8,-0.7
2023/01/10 21:00:00,20.8,-0.6
2023/01/10 21:10:00,20.8,-0.5
2023/01/10 21:20:00,20.8,-0.6
2023/01/10 21:30:00,20.8,-0.8
2023/01/10 21:40:00,20.9,-0.7
2023/01/10 21:50:00,20.9,-1.0
2023/01/10 22:00:00,20.8,-1.1
2023/01/10 22:10:00,20.9,-1.1
2023/01/10 22:20:00,20.9,-1.3
2023/01/10 22:30:00,20.9,-0.9
2023/01/10 22:40:00,20.9,-1.4
2023/01/10 22:50:00,20.8,-1.2
2023/01/10 23:00:00,20.8,-1.3
2023/01/10 23:10:00,20.8,-1.3
2023/01/10 23:20:00,20.8,-1.3
2023/01/10 23:30:00,20.8,-1.4
2023/01/10 23:40:00,20.8,-1.5
2023/01/10 23:50:00,20.8,-1.6
